Weather History for Westhampton Beach, NY

Change the Weather History Date:

Monday, May 5, 2014

  Actual Average Record
Temperature  
Mean Temperature 56 °F -  
Max Temperature 66 °F 62 °F 79 °F (2000)
Min Temperature 43 °F 42 °F 26 °F (2003)
Degree Days  
Heating Degree Days 10    
Growing Degree Days 6 (Base 50)    
Moisture  
Dew Point 35 °F    
Average Humidity 47    
Maximum Humidity 68    
Minimum Humidity 29    
Precipitation  
Precipitation 0.00 in - - ()
Sea Level Pressure  
Sea Level Pressure 29.82 in    
Wind  
Wind Speed 12 mph (NW)    
Max Wind Speed 23 mph    
Max Gust Speed 30 mph    
Visibility 10 miles    
Events      
Averages and records for this station are not official NWS values.
T = Trace of Precipitation, MM = Missing Value Source: NWS Daily Summary

Daily Weather History Graph

Daily Weather History Graph

Search for Another Location

Airport:

Trip Planner

Search our weather history database for the weather conditions in past years. The results will help you decide how hot, cold, wet, or windy it might be!

Date:

Astronomy

May. 05, 2014 Rise Set
Actual Time 5:43 AM EDT 7:51 PM EDT
Civil Twilight 5:13 AM EDT 8:21 PM EDT
Nautical Twilight 4:36 AM EDT 8:58 PM EDT
Astronomical Twilight 3:56 AM EDT 9:39 PM EDT
Moon 11:01 AM EDT (5/5) 12:33 AM EDT (5/5)
Length of Visible Light 15h 07m
Length of Day
14h 07m
Waxing Crescent, 36% of the Moon is Illuminated
May 5
Waxing Crescent
May 6
First Quarter
May 14
Full
May 21
Last Quarter
May 28
New

Hourly Weather History & Observations

Time (EDT) Temp. Dew Point Humidity Pressure Visibility Wind Dir Wind Speed Gust Speed Precip Events Conditions
12:53 AM 53.1 °F 30.0 °F 41% 29.74 in 10.0 mi WNW 15.0 mph 23.0 mph N/A   Scattered Clouds
1:53 AM 52.0 °F 30.9 °F 45% 29.75 in 10.0 mi NW 10.4 mph - N/A   Mostly Cloudy
2:53 AM 51.1 °F 34.0 °F 52% 29.76 in 10.0 mi NW 10.4 mph - N/A   Scattered Clouds
3:53 AM 50.0 °F 35.1 °F 57% 29.77 in 10.0 mi WNW 11.5 mph 19.6 mph N/A   Clear
4:53 AM 48.9 °F 35.1 °F 59% 29.78 in 10.0 mi WNW 8.1 mph - N/A   Clear
5:53 AM 48.9 °F 35.1 °F 59% 29.81 in 10.0 mi WNW 10.4 mph 18.4 mph N/A   Clear
6:53 AM 51.1 °F 37.0 °F 59% 29.83 in 10.0 mi WNW 11.5 mph - N/A   Clear
7:53 AM 54.0 °F 37.0 °F 53% 29.85 in 10.0 mi NW 17.3 mph 24.2 mph N/A   Clear
8:53 AM 55.9 °F 37.0 °F 49% 29.84 in 10.0 mi NNW 19.6 mph 26.5 mph N/A   Clear
9:53 AM 57.0 °F 36.0 °F 45% 29.85 in 10.0 mi NW 23.0 mph 29.9 mph N/A   Clear
10:53 AM 59.0 °F 36.0 °F 42% 29.85 in 10.0 mi NW 13.8 mph 25.3 mph N/A   Clear
11:53 AM 61.0 °F 37.0 °F 41% 29.85 in 10.0 mi NW 15.0 mph 25.3 mph N/A   Clear
12:53 PM 63.0 °F 36.0 °F 37% 29.84 in 10.0 mi NW 18.4 mph 28.8 mph N/A   Clear
2:53 PM 66.0 °F 35.1 °F 32% 29.83 in 10.0 mi WNW 19.6 mph - N/A   Clear
3:53 PM 66.0 °F 35.1 °F 32% 29.81 in 10.0 mi WNW 13.8 mph 20.7 mph N/A   Partly Cloudy
4:53 PM 66.9 °F 34.0 °F 30% 29.81 in 10.0 mi NW 12.7 mph 26.5 mph N/A   Partly Cloudy
5:53 PM 66.0 °F 33.1 °F 29% 29.81 in 10.0 mi NNW 12.7 mph - N/A   Clear
6:53 PM 64.0 °F 34.0 °F 33% 29.82 in 10.0 mi NW 6.9 mph - N/A   Clear
7:53 PM 59.0 °F 35.1 °F 41% 29.84 in 10.0 mi Calm Calm - N/A   Clear
8:53 PM 50.0 °F 36.0 °F 59% 29.86 in 10.0 mi Calm Calm - N/A   Clear
9:53 PM 45.0 °F 34.0 °F 65% 29.88 in 10.0 mi Calm Calm - N/A   Clear
10:53 PM 43.0 °F 33.1 °F 68% 29.88 in 10.0 mi Calm Calm - N/A   Clear